Regional Weather Roundup
Issued by NWS Charleston, SC

Current Version | Previous Version | Graphics & Text | Print | Product List | Glossary On
Versions: 1 2 3 4 5 6 7 8 9 10 11 12 13 14 15 16 17 18 19 20 21 22 23 24 25 26 27 28 29 30 31 32 33 34 35 36 37 38 39 40 41 42 43 44 45 46 47 48 49 50
000
ASUS42 KCHS 281213
RWRCHS

REGIONAL WEATHER ROUNDUP
NATIONAL WEATHER SERVICE CHARLESTON SC
800 AM EDT THU APR 28 2016

NOTE: "FAIR" INDICATES FEW OR NO CLOUDS BELOW 12,000 FEET WITH NO
SIGNIFICANT WEATHER AND/OR OBSTRUCTIONS TO VISIBILITY.

NOT ALL STATIONS ARE QUALITY CONTROLLED. USE DATA WITH CAUTION...
ESPECIALLY DEWPOINT OBSERVATIONS.

SCZ027-030-031-034>040-042>050-281300-
...SOUTHEAST SOUTH CAROLINA...

CITY           SKY/WX    TMP DP  RH WIND       PRES   REMARKS
N CHARLESTON   PTSUNNY   73  67  81 SW7       29.96R
6HR MIN TEMP:  70; 6HR MAX TEMP:  73;

WATERFRONT PRK   N/A     72  68  87 VRB3      29.94R
MOUNT PLEASANT FAIR      72  68  88 S7        29.97R
JOHNS ISLAND   FAIR      73  70  88 S7        29.96R
PINOPOLIS        N/A     72  66  83 SW5       29.88R
MONCKS CORNER  CLOUDY    66  61  82 CALM      29.96R
SUMMERVILLE    CLOUDY    68  68 100 CALM      29.97R
BEAUFORT MCAS  CLOUDY    72  67  84 S6        29.96R
6HR MIN TEMP:  70; 6HR MAX TEMP:  74;

BEAUFORT ARPT  LGT RAIN  72  68  88 CALM      29.96R
HILTON HEAD IS NOT AVBL
WALTERBORO     PTSUNNY   70  68  94 SW3       29.98R
ALLENDALE      PTSUNNY   68  64  88 CALM      29.96R

...SOUTHERN MIDLANDS AND PEE DEE...

CITY           SKY/WX    TMP DP  RH WIND       PRES   REMARKS
GEORGETOWN     FAIR      70  64  83 SW7       29.96R
KINGSTREE      PTSUNNY   66  63  88 CALM      29.95R
ORANGEBURG     CLOUDY    67  63  87 CALM      29.96R
6HR MIN TEMP:  64; 6HR MAX TEMP:  67; 6HR PCP: TRACE;

BARNWELL       FAIR      70  66  88 CALM      29.96R
AIKEN          CLOUDY    66  63  88 S3        29.98R
MANNING        NOT AVBL
COLUMBIA       LGT RAIN  69  61  75 CALM      29.94R
6HR MIN TEMP:  68; 6HR MAX TEMP:  72; 6HR PCP: TRACE;

SUMTER         CLOUDY    66  63  88 SW6       29.93R
6HR MIN TEMP:  65; 6HR MAX TEMP:  69; 6HR PCP: TRACE;

FLORENCE       CLOUDY    69  64  84 SW7       29.94R
6HR MIN TEMP:  66; 6HR MAX TEMP:  70;

MYRTLE BEACH   PTSUNNY   72  63  73 SW7       29.97R
N MYRTLE BEACH PTSUNNY   70  68  93 SW12      29.95R
6HR MIN TEMP:  69; 6HR MAX TEMP:  71; 6HR PCP: TRACE;


$$

GAZ063-065-086>088-099>101-113>116-118-119-134>141-150-281300-
...SOUTHEAST GEORGIA...

CITY           SKY/WX    TMP DP  RH WIND       PRES   REMARKS
SAVANNAH ARPT  CLOUDY    70  65  84 S6        29.97R
6HR MIN TEMP:  69; 6HR MAX TEMP:  71; 6HR PCP: TRACE;

HUNTER AAF     CLOUDY    71  70  98 S2        29.95R
6HR MIN TEMP:  70; 6HR MAX TEMP:  71; 6HR PCP: TRACE;

FORT STEWART   CLOUDY    69  65  86 CALM      29.95R
6HR MIN TEMP:  67; 6HR MAX TEMP:  69; 6HR PCP: TRACE;

STATESBORO     CLOUDY    71  69  93 SW3       29.96R
SYLVANIA       CLOUDY    68  67  95 CALM      29.97R
CLAXTON        FAIR      68  67  96 CALM      29.97R

...CSRA...CENTRAL AND FAR SOUTHEAST GEORGIA...

CITY           SKY/WX    TMP DP  RH WIND       PRES   REMARKS
THOMSON        CLOUDY    69  67  94 CALM      29.99R
AUGUSTA-BUSH   PTSUNNY   67  65  93 CALM      29.95R
6HR MIN TEMP:  64; 6HR MAX TEMP:  69; 6HR PCP:  0.01;

AUGUSTA-DANIEL CLOUDY    70  63  78 S5        29.96R
SWAINSBORO     PTSUNNY   68  64  88 S5        29.97R
VIDALIA        MOSUNNY   68  64  88 S3        29.97R
EASTMAN        CLOUDY    69  69 100 CALM      29.99R FOG
HAZLEHURST     FAIR      70  70 100 SW7       29.96R
ALMA           CLOUDY    69  68  96 S6        29.97R FOG
6HR MIN TEMP:  67; 6HR MAX TEMP:  69;

WAYCROSS       FOG       68  68 100 SW6       29.97R VSB 1/2
JESUP          FAIR      70  68  94 CALM      29.98R
BAXLEY         CLOUDY    70  70 100 SW5       29.97R FOG
BRUNSWICK      CLOUDY    73  70  88 SW5       29.99R
SAINT SIMONS   CLOUDY    71  69  93 SW5       29.97R
6HR MIN TEMP:  69; 6HR MAX TEMP:  72;


$$

SCZ027-028-034-036>038-045-046-048>050-GAZ119-141-281300-
...LAKE AND SUPPLEMENTAL COASTAL OBSERVATIONS...

STATION/POSITION TIME  TEMP    WIND        PRES    WAVE   SWELL
                       AIR SEA DIR/SP/G            HT/PER HT/PER/DIR
                 (UTC) (F)     (DEG/KT/KT) (MB)    (FT/S) (FT/S/D)
WINYAH BAY       NOT AVBL
LAKE MURRAY      1100   69     210/  4/  5 1012.9R
ACE BASIN NERRS  1045   68        CALM     1014.0
FORT PULASKI     1100   71 71  210/  4/  6 1014.4R
SAPELO ISLAND    NOT AVBL

$$

ANZ835-935-AMZ111-154-330-350-352-354-370-450-454-472-281300-
...C-MAN AND BUOY OBSERVATIONS...

STATION/POSITION TIME  TEMP    WIND        PRES    WAVE   SWELL
                       AIR SEA DIR/SP/G            HT/PER HT/PER/DIR
                 (UTC) (F)     (DEG/KT/KT) (MB)    (FT/S) (FT/S/D)
BUOY 41004       1150   72 71  210/ 10/ 12 1014.6R   3/ 5   2/ 5
BUOY 41008       NOT AVBL
FOLLY BEACH CMAN 1200   71     220/  8/ 11 1014.9R
CAPERS NEARSHORE 1108   70 69  230/ 10/ 14 1013.8R
FRIPP NEARSHORE  1108   71 70  220/ 12/ 16 1013.5R


STATION/POSITION TIME  TEMP    WIND        PRES    WAVE   SWELL
                       AIR SEA DIR/SP/G            HT/PER HT/PER/DIR
                 (UTC) (F)     (DEG/KT/KT) (MB)    (FT/S) (FT/S/D)
5E ST. MARYS GA  1121      71                N/A     2/ 4
FRYING PAN BUOY  1100   72 69  190/ 10/ 12 1014.0R
BUOY 41025       1150   71 71  250/ 12/ 14 1014.6R   4/ 5   2/190/ 5
CAPE LOOKOUT NC  1100   69     220/  7/  9 1013.8R
BUOY 41002       1150   71 70  230/  6/  6 1017.7R   3/ 8   2/ 90/ 8
BUOY 41010       1120   75 76  190/ 10/ 12 1015.8
ST AUGUSTINE FL  1200   71 70  210/  7/  8 1016.1R


$$




USA.gov is the U.S. government's official web portal to all federal, state and local government web resources and services.